Pittsfield, IL

10:49 PM CST on February 22, 2017 (GMT -0600)
Pittsfield Penstone Municipal

Weather History for KPPQ - January, 2004

Change the Weather History Date:

Saturday, January 31, 2004

  Actual Average (KUIN) Record (KUIN)
Temperature  
Mean Temperature 2 °F -  
Max Temperature 12 °F 36 °F 72 °F (1989)
Min Temperature -9 °F 17 °F -14 °F (1996)
Degree Days  
Heating Degree Days 64    
Moisture  
Dew Point -6 °F    
Average Humidity 74    
Maximum Humidity 92    
Minimum Humidity 57    
Precipitation  
Precipitation 0.00 in - - ()
Sea Level Pressure  
Sea Level Pressure 30.16 in    
Wind  
Wind Speed 2 mph (ESE)    
Max Wind Speed 9 mph    
Max Gust Speed -    
Visibility 10 miles    
Events      
Averages and records for this station are not official NWS values.
T = Trace of Precipitation, MM = Missing Value Source: NWS Daily Summary

Daily Weather History Graph

Daily Weather History Graph

Search for Another Location

Airport or City:

Trip Planner

Search our weather history database for the weather conditions in past years. The results will help you decide how hot, cold, wet, or windy it might be!

Date:

Astronomy

Jan. 31, 2004 Rise Set
Actual Time 7:12 AM CST 5:21 PM CST
Civil Twilight 6:43 AM CST 5:49 PM CST
Nautical Twilight 6:11 AM CST 6:22 PM CST
Astronomical Twilight 5:39 AM CST 6:53 PM CST
Moon 12:23 PM CST (1/31) 2:47 AM CST (1/31)
Length of Visible Light 11h 06m
Length of Day
10h 08m
Waxing Gibbous, 73% of the Moon is Illuminated
Jan 31
Waxing Gibbous
Feb 6
Full
Feb 13
Last Quarter
Feb 20
New
Feb 27
First Quarter

Hourly Weather History & Observations

Time (CST) Temp. Windchill Dew Point Humidity Pressure Visibility Wind Dir Wind Speed Gust Speed Precip Events Conditions
12:05 AM -7.6 °F - -9.4 °F 92% 30.17 in 10.0 mi Calm Calm - N/A   Clear
12:25 AM -9.4 °F - -13.0 °F 84% 30.17 in 10.0 mi Calm Calm - N/A   Clear
12:45 AM -7.6 °F - -9.4 °F 92% 30.17 in 10.0 mi Calm Calm - N/A   Clear
1:05 AM -9.4 °F - -13.0 °F 84% 30.17 in 10.0 mi Calm Calm - N/A   Clear
1:25 AM -7.6 °F - -11.2 °F 84% 30.17 in 10.0 mi Calm Calm - N/A   Clear
1:45 AM -7.6 °F - -9.4 °F 92% 30.17 in 10.0 mi Calm Calm - N/A   Clear
2:05 AM -7.6 °F - -13.0 °F 77% 30.18 in 10.0 mi Calm Calm - N/A   Clear
2:25 AM -7.6 °F - -11.2 °F 84% 30.19 in 10.0 mi Calm Calm - N/A   Clear
2:45 AM -9.4 °F - -13.0 °F 84% 30.20 in 10.0 mi Calm Calm - N/A   Clear
3:05 AM -7.6 °F - -13.0 °F 77% 30.18 in 10.0 mi Calm Calm - N/A   Clear
3:25 AM -7.6 °F - -13.0 °F 77% 30.18 in 10.0 mi Calm Calm - N/A   Clear
3:45 AM -7.6 °F -16.5 °F -9.4 °F 92% 30.17 in 10.0 mi North 3.5 mph - N/A   Clear
4:05 AM -5.8 °F -14.5 °F -9.4 °F 84% 30.16 in 10.0 mi North 3.5 mph - N/A   Clear
4:25 AM -5.8 °F - -9.4 °F 84% 30.16 in 10.0 mi Calm Calm - N/A   Clear
4:45 AM -9.4 °F - -14.8 °F 77% 30.16 in 10.0 mi Calm Calm - N/A   Clear
5:05 AM -7.6 °F - -9.4 °F 92% 30.16 in 10.0 mi Calm Calm - N/A   Mostly Cloudy
5:25 AM -7.6 °F - -9.4 °F 92% 30.17 in 10.0 mi Calm Calm - N/A   Scattered Clouds
5:45 AM -7.6 °F - -11.2 °F 84% 30.17 in 10.0 mi Calm Calm - N/A   Clear
6:05 AM -7.6 °F -16.5 °F -9.4 °F 92% 30.17 in 10.0 mi NE 3.5 mph - N/A   Clear
6:25 AM -5.8 °F - -9.4 °F 84% 30.17 in 10.0 mi Calm Calm - N/A   Clear
6:45 AM -5.8 °F - -9.4 °F 84% 30.18 in 10.0 mi Calm Calm - N/A   Clear
7:05 AM -7.6 °F -16.5 °F -11.2 °F 84% 30.20 in 3.0 mi SW 3.5 mph - N/A   Clear
7:25 AM -5.8 °F - -9.4 °F 84% 30.19 in 3.0 mi Calm Calm - N/A   Clear
7:45 AM -4.0 °F - -7.6 °F 85% 30.19 in 10.0 mi Calm Calm - N/A   Clear
8:05 AM -4.0 °F - -7.6 °F 85% 30.19 in 10.0 mi Calm Calm - N/A   Clear
8:25 AM -2.2 °F - -7.6 °F 78% 30.19 in 10.0 mi Calm Calm - N/A   Clear
8:45 AM -2.2 °F - -7.6 °F 78% 30.19 in 10.0 mi Calm Calm - N/A   Clear
9:05 AM -0.4 °F - -7.6 °F 72% 30.19 in 10.0 mi Calm Calm - N/A   Clear
9:25 AM -0.4 °F - -7.6 °F 72% 30.19 in 10.0 mi Calm Calm - N/A   Clear
9:45 AM 1.4 °F -6.2 °F -5.8 °F 72% 30.20 in 10.0 mi SSE 3.5 mph - N/A   Clear
10:05 AM 1.4 °F -9.9 °F -5.8 °F 72% 30.20 in 10.0 mi SE 5.8 mph - N/A   Clear
10:25 AM 1.4 °F -6.2 °F -5.8 °F 72% 30.21 in 10.0 mi SSE 3.5 mph - N/A   Clear
10:45 AM 3.2 °F -4.2 °F -4.0 °F 72% 30.21 in 10.0 mi SE 3.5 mph - N/A   Clear
11:05 AM 5.0 °F - -4.0 °F 66% 30.20 in 10.0 mi Calm Calm - N/A   Clear
11:25 AM 8.6 °F 2.0 °F -0.4 °F 67% 30.19 in 10.0 mi ESE 3.5 mph - N/A   Clear
11:45 AM 8.6 °F 0.1 °F -2.2 °F 62% 30.17 in 10.0 mi SE 4.6 mph - N/A   Clear
12:05 PM 8.6 °F -2.6 °F -4.0 °F 57% 30.17 in 10.0 mi SE 6.9 mph - N/A   Mostly Cloudy
12:25 PM 8.6 °F -1.3 °F -2.2 °F 62% 30.16 in 10.0 mi SE 5.8 mph - N/A   Scattered Clouds
12:45 PM 10.4 °F 0.8 °F -2.2 °F 57% 30.16 in 10.0 mi ESE 5.8 mph - N/A   Scattered Clouds
1:05 PM 10.4 °F -0.4 °F -2.2 °F 57% 30.15 in 10.0 mi ESE 6.9 mph - N/A   Scattered Clouds
1:25 PM 10.4 °F -2.4 °F -2.2 °F 57% 30.14 in 10.0 mi ESE 9.2 mph - N/A   Clear
1:45 PM 10.4 °F -1.5 °F -2.2 °F 57% 30.14 in 10.0 mi ESE 8.1 mph - N/A   Clear
2:05 PM 10.4 °F -2.4 °F -0.4 °F 62% 30.14 in 10.0 mi ESE 9.2 mph - N/A   Clear
2:25 PM 10.4 °F -2.4 °F -0.4 °F 62% 30.13 in 10.0 mi ESE 9.2 mph - N/A   Clear
2:45 PM 12.2 °F 1.7 °F 1.4 °F 62% 30.13 in 10.0 mi East 6.9 mph - N/A   Clear
3:05 PM 12.2 °F 2.9 °F 1.4 °F 62% 30.13 in 10.0 mi ESE 5.8 mph - N/A   Clear
3:25 PM 12.2 °F 0.7 °F 1.4 °F 62% 30.13 in 10.0 mi ESE 8.1 mph - N/A   Clear
3:45 PM 12.2 °F 0.7 °F 1.4 °F 62% 30.13 in 10.0 mi ESE 8.1 mph - N/A   Clear
4:05 PM 12.2 °F 1.7 °F 1.4 °F 62% 30.13 in 10.0 mi ESE 6.9 mph - N/A   Clear
4:25 PM 12.2 °F 0.7 °F 1.4 °F 62% 30.12 in 10.0 mi East 8.1 mph - N/A   Clear
4:45 PM 12.2 °F -0.2 °F 1.4 °F 62% 30.11 in 10.0 mi East 9.2 mph - N/A   Clear
5:05 PM 12.2 °F 0.7 °F 1.4 °F 62% 30.10 in 10.0 mi East 8.1 mph - N/A   Clear
5:25 PM 12.2 °F 1.7 °F 1.4 °F 62% 30.11 in 10.0 mi ENE 6.9 mph - N/A   Clear
5:45 PM 12.2 °F 2.9 °F 1.4 °F 62% 30.11 in 10.0 mi East 5.8 mph - N/A   Clear
6:05 PM 12.2 °F 6.1 °F 1.4 °F 62% 30.12 in 10.0 mi East 3.5 mph - N/A   Clear
6:25 PM 12.2 °F 4.3 °F 3.2 °F 67% 30.12 in 10.0 mi East 4.6 mph - N/A   Clear
6:45 PM 12.2 °F 6.1 °F 1.4 °F 62% 30.12 in 10.0 mi East 3.5 mph - N/A   Clear
7:05 PM 12.2 °F 4.3 °F 3.2 °F 67% 30.13 in 10.0 mi ENE 4.6 mph - N/A   Clear
7:25 PM 12.2 °F 2.9 °F 3.2 °F 67% 30.13 in 10.0 mi ENE 5.8 mph - N/A   Clear
7:45 PM 10.4 °F -0.4 °F 3.2 °F 73% 30.13 in 10.0 mi ENE 6.9 mph - N/A   Clear
8:05 PM 10.4 °F 0.8 °F 3.2 °F 73% 30.13 in 10.0 mi East 5.8 mph - N/A   Clear
8:25 PM 10.4 °F 2.2 °F 3.2 °F 73% 30.13 in 10.0 mi East 4.6 mph - N/A   Clear
8:45 PM 10.4 °F 0.8 °F 3.2 °F 73% 30.12 in 10.0 mi East 5.8 mph - N/A   Clear
9:05 PM 10.4 °F 0.8 °F 3.2 °F 73% 30.13 in 10.0 mi East 5.8 mph - N/A   Clear
9:25 PM 10.4 °F -0.4 °F 3.2 °F 73% 30.12 in 10.0 mi East 6.9 mph - N/A   Clear
9:45 PM 10.4 °F 2.2 °F 3.2 °F 73% 30.14 in 10.0 mi East 4.6 mph - N/A   Clear
10:05 PM 10.4 °F 0.8 °F 3.2 °F 73% 30.14 in 10.0 mi East 5.8 mph - N/A   Clear
10:25 PM 10.4 °F -0.4 °F 3.2 °F 73% 30.14 in 10.0 mi East 6.9 mph - N/A   Clear
10:45 PM 10.4 °F -0.4 °F 3.2 °F 73% 30.13 in 10.0 mi East 6.9 mph - N/A   Clear
11:05 PM 10.4 °F -0.4 °F 3.2 °F 73% 30.13 in 10.0 mi East 6.9 mph - N/A   Clear
11:25 PM 10.4 °F -0.4 °F 3.2 °F 73% 30.14 in 10.0 mi East 6.9 mph - N/A   Clear
11:45 PM 12.2 °F 1.7 °F 5.0 °F 73% 30.14 in 10.0 mi East 6.9 mph - N/A   Clear